EW3281 Weather Reports


Display with metric or nautical units.
time (UTC)temp
F
wind
direction
speed
MPH
gust
MPH
rain 1hr
in
rain 24hr
in
rain mn
in
humidity
%
barometer
mb
20260507073543 54 241 0.0 0.0 0.03 0.12 0.12 97 1005.0
20260507073042 54 264 0.0 0.0 0.02 0.11 0.11 97 1004.8
20260507072541 54 248 0.0 0.0 0.00 0.09 0.09 97 1004.8
20260507072042 54 248 0.0 0.0 0.00 0.09 0.09 97 1004.3
20260507071541 54 248 0.0 0.0 0.00 0.09 0.09 97 1004.0
20260507071041 54 248 0.0 0.0 0.00 0.09 0.09 97 1004.1
20260507070541 54 248 0.0 0.0 0.00 0.09 0.09 97 1003.9
20260507070044 54 248 0.0 0.0 0.00 0.09 0.09 97 1003.9
20260507065544 54 248 0.0 0.0 0.00 0.09 0.09 97 1003.8
20260507065039 54 248 0.0 0.0 0.00 0.09 0.09 96 1003.9
20260507064539 54 248 0.0 0.0 0.00 0.09 0.09 96 1004.2
20260507064038 54 248 0.0 0.0 0.00 0.09 0.09 96 1004.3
20260507063536 54 248 0.0 0.0 0.00 0.09 0.09 96 1004.3
20260507063045 54 248 0.0 0.0 0.00 0.09 0.09 96 1004.3
20260507062537 54 248 0.0 0.0 0.00 0.09 0.09 96 1004.3
20260507062037 54 248 0.0 0.0 0.00 0.09 0.09 96 1004.4
20260507061536 54 248 0.0 0.0 0.00 0.09 0.09 96 1004.2
20260507061036 54 248 0.0 0.0 0.00 0.09 0.09 96 1004.3
20260507060535 54 257 0.0 0.0 0.00 0.09 0.09 96 1004.3
20260507060047 54 257 0.0 0.0 0.00 0.09 0.09 96 1004.3
20260507055536 54 253 0.0 0.0 0.00 0.09 0.09 96 1004.5
20260507055033 54 82 0.0 0.0 0.00 0.09 0.09 96 1004.7
20260507054544 54 220 0.0 0.0 0.00 0.09 0.09 96 1004.8
20260507054034 54 220 0.0 0.0 0.00 0.09 0.09 96 1004.7
20260507053535 54 220 0.0 0.0 0.00 0.09 0.09 96 1004.8
20260507053036 54 214 0.0 0.0 0.00 0.09 0.09 96 1004.9
20260507052533 54 222 0.0 0.0 0.00 0.09 0.09 96 1005.1
20260507052033 54 220 0.0 0.0 0.00 0.09 0.09 96 1005.0
20260507051534 54 23 0.0 0.0 0.00 0.09 0.09 96 1005.0
20260507051036 54 164 0.0 0.0 0.00 0.09 0.09 96 1005.2
20260507050534 54 164 0.0 0.0 0.00 0.09 0.09 96 1005.1
20260507050034 54 165 0.0 0.0 0.00 0.09 0.09 96 1005.3
20260507045532 54 41 0.0 0.0 0.00 0.09 0.09 96 1005.4
20260507045032 54 41 0.0 0.0 0.00 0.09 0.09 96 1005.2
20260507044547 54 32 0.0 0.0 0.00 0.09 0.09 96 1005.2
20260507044033 54 108 0.0 0.0 0.00 0.09 0.09 96 1005.2
20260507043531 54 108 0.0 0.0 0.00 0.09 0.09 96 1005.2
20260507043032 54 108 0.0 0.0 0.00 0.09 0.09 96 1005.3
20260507042532 54 63 0.0 0.0 0.00 0.09 0.09 96 1005.2
20260507042031 54 115 0.0 0.0 0.00 0.09 0.09 96 1005.2
20260507041530 54 342 0.0 0.0 0.00 0.09 0.09 96 1005.1
20260507041030 54 77 0.0 0.0 0.00 0.09 0.09 96 1005.2
20260507040530 54 49 0.0 0.0 0.00 0.09 0.09 96 1005.1
20260507040034 54 25 0.0 0.0 0.00 0.09 0.09 96 1005.4
20260507035529 55 30 0.0 0.0 0.00 0.09 0.09 96 1005.4
20260507035029 55 47 0.0 0.0 0.00 0.09 0.09 96 1005.2
20260507034534 55 53 0.0 0.0 0.00 0.09 0.09 96 1005.1
20260507034028 55 18 0.0 0.0 0.00 0.09 0.09 96 1005.4
20260507033527 55 19 0.0 0.0 0.00 0.09 0.09 96 1005.5
20260507033028 55 19 0.0 0.0 0.00 0.09 0.09 96 1005.4
20260507032526 55 339 0.0 0.0 0.00 0.09 0.09 96 1005.5
20260507032030 55 263 0.0 0.0 0.00 0.09 0.09 96 1005.7
20260507031526 55 241 0.0 0.0 0.00 0.09 0.09 96 1005.8
20260507031026 55 240 0.0 0.0 0.00 0.09 0.09 96 1005.6
20260507030531 55 259 0.0 0.0 0.00 0.09 0.09 96 1005.3
20260507030026 55 354 0.0 0.0 0.00 0.09 0.09 96 1005.4
20260507025525 55 66 0.0 0.0 0.00 0.09 0.09 96 1005.4
20260507025025 55 64 0.0 0.0 0.00 0.09 0.09 96 1005.4
20260507024525 55 48 0.0 0.0 0.00 0.09 0.09 96 1005.5
20260507024026 55 158 0.0 0.0 0.00 0.09 0.09 96 1005.4
20260507023529 55 158 0.0 0.0 0.00 0.09 0.09 96 1005.4
20260507023026 55 127 0.0 0.0 0.00 0.09 0.09 96 1005.6
20260507022530 55 223 0.0 0.0 0.00 0.09 0.09 96 1005.5
20260507022029 55 32 0.0 0.0 0.00 0.09 0.09 96 1005.6
20260507021529 55 99 0.0 0.0 0.00 0.09 0.09 96 1005.7
20260507021028 54 68 0.0 0.0 0.00 0.09 0.09 96 1005.5
20260507020524 54 77 0.0 0.0 0.00 0.09 0.09 96 1005.5
20260507020032 55 7 0.0 0.0 0.00 0.09 0.09 96 1005.5
20260507015527 55 324 0.0 0.0 0.00 0.09 0.09 96 1005.6
20260507015023 55 212 0.0 0.0 0.00 0.09 0.09 96 1005.5
20260507014522 55 113 0.0 0.0 0.00 0.09 0.09 96 1005.6
20260507014025 55 8 0.0 0.0 0.00 0.09 0.09 96 1005.8
20260507013520 55 195 0.0 0.0 0.00 0.09 0.09 96 1005.8
20260507013021 55 66 0.0 0.0 0.00 0.09 0.09 96 1005.8
20260507012521 55 135 0.0 0.0 0.00 0.09 0.09 96 1005.8
20260507012020 55 111 0.0 0.0 0.00 0.09 0.09 96 1005.9
20260507011521 55 111 0.0 0.0 0.00 0.09 0.09 96 1006.0
20260507011021 55 160 0.0 0.0 0.00 0.09 0.09 96 1006.0
20260507010520 55 79 0.0 0.0 0.00 0.09 0.09 96 1006.0
20260507010026 55 46 0.0 0.0 0.00 0.09 0.09 96 1006.1
20260507005519 55 200 0.0 0.0 0.00 0.09 0.09 96 1006.1
20260507005019 55 44 0.0 0.0 0.00 0.09 0.09 96 1006.1
20260507004524 55 46 0.0 0.0 0.00 0.09 0.09 96 1006.1
20260507004019 55 49 0.0 0.0 0.00 0.09 0.09 96 1006.0
20260507003520 55 53 0.0 0.0 0.00 0.09 0.09 96 1006.1
20260507003026 55 90 0.0 0.0 0.00 0.09 0.09 96 1006.0
20260507002519 55 190 0.0 0.0 0.00 0.09 0.09 96 1006.0
20260507002020 55 27 0.0 0.0 0.00 0.09 0.09 96 1005.9
20260507001524 55 129 0.0 1.0 0.00 0.09 0.09 96 1005.9
20260507001020 55 58 0.0 1.0 0.00 0.09 0.09 96 1005.9
20260507000519 55 253 0.0 0.0 0.00 0.09 0.09 96 1005.9
20260507000018 55 84 0.0 0.0 0.00 0.09 0.09 96 1006.0
20260506235517 55 271 0.0 0.0 0.00 0.09 0.09 96 1005.9
20260506235017 55 88 0.0 0.0 0.00 0.09 0.09 96 1006.0
20260506234517 55 224 0.0 0.0 0.00 0.09 0.09 96 1005.9
20260506234018 55 85 0.0 0.0 0.00 0.09 0.09 96 1005.9
20260506233514 55 164 0.0 0.0 0.01 0.09 0.09 96 1005.9
20260506233014 55 40 0.0 0.0 0.01 0.09 0.09 96 1005.9
20260506232514 55 184 0.0 0.0 0.01 0.09 0.09 96 1005.9
20260506232014 55 74 0.0 0.0 0.01 0.09 0.09 96 1005.9
20260506231514 55 60 0.0 0.0 0.02 0.09 0.09 96 1005.9
20260506231014 55 22 0.0 1.0 0.04 0.09 0.09 96 1005.9
20260506230513 54 120 0.0 1.0 0.05 0.09 0.09 96 1005.8
20260506230012 54 111 0.0 4.0 0.06 0.09 0.09 96 1005.8
20260506225512 54 75 0.0 4.0 0.06 0.09 0.09 96 1005.8
20260506225113 54 64 0.0 4.0 0.06 0.09 0.09 95 1005.8
20260506224511 54 52 0.0 1.0 0.07 0.09 0.09 95 1005.8
20260506224010 54 151 0.0 1.0 0.07 0.09 0.09 95 1005.8
20260506223511 54 62 0.0 0.0 0.06 0.08 0.08 95 1005.9
20260506223009 54 59 0.0 0.0 0.06 0.08 0.08 95 1005.9
20260506222511 55 78 0.0 0.0 0.06 0.08 0.08 95 1005.8
20260506222009 55 78 0.0 0.0 0.06 0.08 0.08 95 1005.8
20260506221507 55 49 0.0 0.0 0.06 0.07 0.07 95 1006.0
20260506221005 55 345 0.0 4.0 0.04 0.05 0.05 95 1006.1
20260506220506 55 60 0.0 4.0 0.04 0.05 0.05 95 1006.1
20260506220005 55 25 0.0 0.0 0.03 0.04 0.04 94 1006.3
20260506215505 55 306 0.0 0.0 0.02 0.03 0.03 94 1006.2
20260506215005 55 27 0.0 0.0 0.02 0.03 0.03 94 1006.4
20260506214505 55 143 0.0 0.0 0.01 0.02 0.02 94 1006.3
20260506214008 55 86 0.0 1.0 0.02 0.02 0.02 94 1006.4
20260506213502 55 53 0.0 1.0 0.02 0.02 0.02 94 1006.4
20260506213004 55 94 0.0 1.0 0.02 0.02 0.02 94 1006.4
20260506212501 55 349 0.0 1.0 0.02 0.02 0.02 93 1006.4
20260506212101 55 124 0.0 1.0 0.02 0.02 0.02 93 1006.5
20260506211559 55 85 0.0 0.0 0.01 0.01 0.01 93 1006.7
20260506211100 55 107 0.0 1.0 0.01 0.01 0.01 93 1006.6
20260506210058 55 45 0.0 1.0 0.01 0.01 0.01 92 1006.6
20260506205557 56 62 0.0 1.0 0.01 0.01 0.01 92 1006.7
20260506205056 56 52 0.0 1.0 0.01 0.01 0.01 92 1006.8
20260506204615 56 246 0.0 0.0 0.01 0.01 0.01 91 1006.8
20260506204054 56 219 0.0 2.0 0.01 0.01 0.01 91 1007.0
20260506203554 56 70 0.0 2.0 0.00 0.00 0.00 91 1006.9
20260506203055 56 90 0.0 0.0 0.00 0.00 0.00 91 1006.8
20260506202553 57 327 0.0 0.0 0.00 0.00 0.00 91 1006.9
20260506202054 57 217 0.0 1.0 0.00 0.00 0.00 91 1006.9
20260506201553 57 104 0.0 1.0 0.00 0.00 0.00 91 1006.9
20260506201052 57 52 0.0 0.0 0.00 0.00 0.00 90 1006.9
20260506200035 57 80 0.0 0.0 0.00 0.00 0.00 90 1007.0
20260506195534 57 356 0.0 0.0 0.00 0.00 0.00 90 1007.2
20260506195033 57 58 0.0 0.0 0.00 0.00 0.00 91 1007.1
20260506194532 57 198 0.0 0.0 0.00 0.00 0.00 90 1007.2
20260506194035 58 99 0.0 0.0 0.00 0.00 0.00 89 1007.2
20260506193530 58 8 0.0 0.0 0.00 0.00 0.00 88 1007.2
20260506193029 58 98 0.0 0.0 0.00 0.00 0.00 87 1007.3
20260506192527 59 62 0.0 1.0 0.00 0.00 0.00 86 1007.3
20260506192026 59 88 0.0 2.0 0.00 0.00 0.00 84 1007.2
20260506191526 59 167 0.0 2.0 0.00 0.00 0.00 83 1007.3
20260506191024 60 226 0.0 5.0 0.00 0.00 0.00 81 1007.3
20260506190519 60 89 0.0 5.0 0.00 0.00 0.00 81 1007.3
20260506190017 60 138 0.0 5.0 0.00 0.00 0.00 81 1007.4
20260506185515 61 30 0.0 9.0 0.00 0.00 0.00 80 1007.4
20260506185017 61 131 0.0 9.0 0.00 0.00 0.00 80 1007.5
20260506184514 61 261 0.0 1.0 0.00 0.00 0.00 80 1007.3
20260506184014 61 217 0.0 1.0 0.00 0.00 0.00 80 1007.4
20260506183513 61 287 0.0 0.0 0.00 0.00 0.00 80 1007.5
20260506183012 61 84 0.0 1.0 0.00 0.00 0.00 79 1007.5
20260506182511 61 81 0.0 0.0 0.00 0.00 0.00 79 1007.7
20260506182010 62 183 0.0 0.0 0.00 0.00 0.00 79 1007.9
20260506181509 62 312 0.0 0.0 0.00 0.00 0.00 78 1007.8
20260506181009 62 96 0.0 0.0 0.00 0.00 0.00 78 1007.8
20260506180036 62 87 0.0 1.0 0.00 0.00 0.00 78 1007.8
20260506175532 62 169 0.0 1.0 0.00 0.00 0.00 78 1008.0
20260506175028 63 56 0.0 0.0 0.00 0.00 0.00 77 1008.0
20260506174532 63 70 0.0 2.0 0.00 0.00 0.00 76 1008.2
20260506174027 63 70 0.0 2.0 0.00 0.00 0.00 76 1008.2
20260506173526 64 74 0.0 1.0 0.00 0.00 0.00 75 1008.2
20260506173026 64 49 0.0 1.0 0.00 0.00 0.00 75 1008.5
20260506172524 64 332 0.0 1.0 0.00 0.00 0.00 75 1008.6
20260506172025 64 338 0.0 3.0 0.00 0.00 0.00 74 1008.4
20260506171527 65 76 0.0 3.0 0.00 0.00 0.00 74 1008.3
20260506171024 65 150 0.0 1.0 0.00 0.00 0.00 74 1008.4
20260506170055 65 316 0.0 1.0 0.00 0.00 0.00 74 1008.5
20260506165551 65 183 0.0 0.0 0.00 0.00 0.00 75 1008.4
20260506165051 64 50 0.0 5.0 0.00 0.00 0.00 75 1008.6
20260506164557 64 120 0.0 5.0 0.00 0.00 0.00 75 1008.6
20260506164049 64 82 0.0 3.0 0.00 0.00 0.00 76 1008.8
20260506163549 64 36 0.0 4.0 0.00 0.00 0.00 77 1009.0
20260506163049 63 80 0.0 6.0 0.00 0.00 0.00 76 1008.8
20260506162547 64 98 0.0 3.0 0.00 0.00 0.00 75 1009.0
20260506162050 64 296 0.0 2.0 0.00 0.00 0.00 75 1009.1
20260506161546 64 79 0.0 2.0 0.00 0.00 0.00 74 1008.8
20260506161045 64 210 0.0 10.0 0.00 0.00 0.00 73 1008.9
20260506160046 65 118 0.0 4.0 0.00 0.00 0.00 73 1009.3
20260506155544 65 97 0.0 1.0 0.00 0.00 0.00 73 1009.1
20260506155047 65 114 0.0 2.0 0.00 0.00 0.00 73 1009.2
20260506154552 65 188 0.0 2.0 0.00 0.00 0.00 74 1009.3
20260506154041 65 178 0.0 6.0 0.00 0.00 0.00 74 1009.4
20260506153541 65 98 0.0 3.0 0.00 0.00 0.00 74 1009.3
20260506153041 64 11 0.0 6.0 0.00 0.00 0.00 75 1009.3
20260506152537 64 65 0.0 6.0 0.00 0.00 0.00 75 1009.5
20260506152036 64 120 0.0 1.0 0.00 0.00 0.00 76 1009.4
20260506151537 64 235 0.0 1.0 0.00 0.00 0.00 76 1009.5
20260506151033 63 90 0.0 2.0 0.00 0.00 0.00 78 1009.6
20260506150021 63 10 0.0 2.0 0.00 0.00 0.00 76 1009.7
20260506145524 63 58 0.0 1.0 0.00 0.00 0.00 77 1009.7
20260506145019 63 121 0.0 1.0 0.00 0.00 0.00 77 1009.6
20260506144517 63 98 0.0 0.0 0.00 0.00 0.00 78 1009.5
20260506144020 63 264 0.0 1.0 0.00 0.00 0.00 77 1009.5
20260506143514 63 113 0.0 1.0 0.00 0.00 0.00 78 1009.5
20260506143013 62 102 0.0 0.0 0.00 0.00 0.00 79 1009.5
20260506142513 62 65 0.0 0.0 0.00 0.00 0.00 78 1009.7
20260506142008 62 216 0.0 0.0 0.00 0.00 0.00 78 1009.7
20260506141508 62 61 0.0 0.0 0.00 0.00 0.00 79 1009.7
20260506141007 62 79 0.0 1.0 0.00 0.00 0.00 79 1009.5
20260506140057 62 82 0.0 8.0 0.00 0.00 0.00 79 1009.2
20260506135545 62 117 0.0 8.0 0.00 0.00 0.00 79 1009.4
20260506135044 62 238 0.0 3.0 0.00 0.00 0.00 79 1009.4
20260506134544 62 98 0.0 0.0 0.00 0.00 0.00 79 1009.6
20260506134041 62 91 0.0 0.0 0.00 0.00 0.00 80 1009.7
20260506133540 61 96 0.0 1.0 0.00 0.00 0.00 81 1009.8
20260506133046 61 22 0.0 1.0 0.00 0.00 0.00 81 1009.9
20260506132537 61 138 0.0 1.0 0.00 0.00 0.00 82 1010.0
20260506132039 61 21 0.0 1.0 0.00 0.00 0.00 83 1009.9
20260506131536 60 198 0.0 1.0 0.00 0.00 0.00 83 1009.9
20260506131032 60 341 0.0 1.0 0.00 0.00 0.00 84 1010.0
20260506130030 59 104 0.0 0.0 0.00 0.00 0.00 84 1010.0
20260506125527 59 65 0.0 0.0 0.00 0.00 0.00 85 1010.0
20260506125026 59 87 0.0 0.0 0.00 0.00 0.00 85 1010.0
20260506124525 59 106 0.0 6.0 0.00 0.00 0.00 85 1009.9
20260506124024 59 29 0.0 6.0 0.00 0.00 0.00 85 1010.0
20260506123522 59 114 1.0 6.0 0.00 0.00 0.00 85 1009.9
20260506123021 59 24 0.0 2.0 0.00 0.00 0.00 85 1009.8
20260506122520 59 108 0.0 3.0 0.00 0.00 0.00 86 1009.9
20260506122017 58 70 0.0 0.0 0.00 0.00 0.00 86 1009.9
20260506121516 58 302 0.0 0.0 0.00 0.00 0.00 87 1010.0
20260506121019 57 91 0.0 0.0 0.00 0.00 0.00 87 1010.1
20260506120023 57 89 0.0 0.0 0.00 0.00 0.00 87 1010.2
20260506115516 57 67 0.0 0.0 0.00 0.00 0.00 87 1010.2
20260506115012 58 83 0.0 0.0 0.00 0.00 0.00 87 1010.1
20260506114510 58 95 0.0 1.0 0.00 0.00 0.00 88 1010.3
20260506114009 57 134 0.0 1.0 0.00 0.00 0.00 89 1010.3
20260506113508 57 238 0.0 3.0 0.00 0.00 0.00 89 1010.4
20260506113009 56 293 0.0 3.0 0.00 0.00 0.00 90 1010.3
20260506112505 56 70 0.0 0.0 0.00 0.00 0.00 90 1010.4
20260506112003 56 98 0.0 1.0 0.00 0.00 0.00 90 1010.6
20260506111501 56 2 0.0 1.0 0.00 0.00 0.00 90 1010.5
20260506111101 56 33 0.0 0.0 0.00 0.00 0.00 91 1010.5
20260506110103 56 52 0.0 0.0 0.00 0.00 0.00 90 1010.5
20260506105559 56 341 0.0 0.0 0.00 0.00 0.00 90 1010.3
20260506105058 56 33 0.0 0.0 0.00 0.00 0.00 91 1010.4
20260506104559 56 91 0.0 0.0 0.00 0.00 0.00 91 1010.3
20260506104054 56 129 0.0 0.0 0.00 0.00 0.00 91 1010.1
20260506103552 0 75 0.0 0.0 0.00 0.00 0.00 1010.1
20260506103058 0 0.0 0.0 0.00 0.00 0.00 1010.1
20260506102550 0 0.0 0.0 0.00 0.00 0.00 1010.2
20260506102048 0 0.0 0.0 0.00 0.00 0.00 1010.1
20260506101551 0 0.0 0.0 0.00 0.00 0.00 1010.1
20260506101046 0 0.0 0.0 0.00 0.00 0.00 1010.1
20260506100042 0 0.0 0.0 0.00 0.00 0.00 1009.9
20260506095541 0 0.0 0.0 0.00 0.00 0.00 1009.9
20260506095043 0 0.0 0.0 0.00 0.00 0.00 1009.9
20260506094538 0 0.0 0.0 0.00 0.00 0.00 1009.8
20260506094036 0 0.0 0.0 0.00 0.00 0.00 1009.9
20260506093536 0 0.0 0.0 0.00 0.00 0.00 1009.9
20260506093034 0 0.0 0.0 0.00 0.00 0.00 1010.0
20260506092532 -90 30 0.0 0.0 0.00 0.00 0.00 91 1010.0
20260506092031 -90 30 0.0 0.0 0.00 0.00 0.00 91 1010.0
20260506091530 56 328 0.0 3.0 0.00 0.00 0.00 91 1010.1
20260506091029 56 100 0.0 3.0 0.00 0.00 0.00 91 1010.1
20260506090029 56 340 0.0 0.0 0.00 0.00 0.00 90 1010.2
20260506085529 56 108 0.0 0.0 0.00 0.00 0.00 90 1010.2
20260506085029 56 125 0.0 0.0 0.00 0.00 0.00 90 1010.2
20260506084535 56 41 0.0 0.0 0.00 0.00 0.00 90 1010.2
20260506084029 56 60 0.0 0.0 0.00 0.00 0.00 90 1010.2
20260506083529 56 115 0.0 0.0 0.00 0.00 0.00 90 1010.2
20260506083032 56 336 0.0 0.0 0.00 0.00 0.00 90 1010.2
20260506082527 56 134 0.0 0.0 0.00 0.00 0.00 90 1010.3
20260506082027 57 50 0.0 0.0 0.00 0.00 0.00 90 1010.3
20260506081528 57 59 0.0 0.0 0.00 0.00 0.00 90 1010.4
20260506081031 57 333 0.0 0.0 0.00 0.00 0.00 89 1010.3